Location: Oshawa
(43.9000°N, 78.8670°W)
Time: 05:12:22
(UTC-04:00)

S-56A Canister/Altair - All Passes

Search period start: 29 March 2017 00:00
Search period end: 08 April 2017 00:00
Orbit: 639 x 2495 km, 38.9° (Epoch: 27 March)

Date Brightness Start Highest point End Pass type
(mag) Time Alt. Az. Time Alt. Az. Time Alt. Az.
29 Mar - 04:20:35 10° SSE 04:24:18 11° SE 04:27:47 10° ESE visible
29 Mar - 06:17:31 10° SSW 06:28:47 33° SSE 06:37:17 10° E visible
29 Mar - 08:21:59 10° WSW 08:33:36 56° SSE 08:41:22 10° E daylight
29 Mar - 10:28:26 10° W 10:38:06 61° S 10:44:26 10° ESE daylight
29 Mar - 12:34:56 10° W 12:41:34 33° SSW 12:46:24 10° SSE daylight
30 Mar - 05:44:35 10° SSW 05:55:55 31° SSE 06:04:44 10° E visible
30 Mar - 07:48:38 10° WSW 08:00:51 55° SSE 08:09:08 10° E daylight
30 Mar - 09:55:06 10° W 10:05:33 63° S 10:12:20 10° ESE daylight
30 Mar - 12:01:46 10° W 12:09:16 38° SSW 12:14:33 10° SE daylight
31 Mar - 05:11:45 10° SSW 05:23:02 29° SE 05:32:06 10° E visible
31 Mar - 07:15:19 10° SW 07:28:01 53° SSE 07:36:50 10° E daylight
31 Mar - 09:21:43 10° W 09:32:55 65° S 09:40:13 10° ESE daylight
31 Mar - 11:28:31 10° W 11:36:55 43° SSW 11:42:39 10° SE daylight
31 Mar - 13:36:47 10° WSW 13:39:19 12° SW 13:41:36 10° SSW daylight
01 Apr - 04:39:01 10° SSW 04:50:07 27° SE 04:59:20 10° E visible
01 Apr - 06:42:02 10° SW 06:55:07 52° SSE 07:04:29 10° E daylight
01 Apr - 08:48:17 10° WSW 09:00:13 66° S 09:08:03 10° E daylight
01 Apr - 10:55:13 10° W 11:04:29 49° SSW 11:10:42 10° SE daylight
01 Apr - 13:02:53 10° W 13:07:08 16° SW 13:10:41 10° S daylight
02 Apr - 04:06:25 10° S 04:17:11 25° SE 04:26:25 10° E visible
02 Apr - 06:08:47 10° SW 06:22:10 50° SSE 06:32:03 10° E visible
02 Apr - 08:14:49 10° WSW 08:27:25 66° S 08:35:50 10° E daylight
02 Apr - 10:21:51 10° W 10:31:59 53° SSW 10:38:42 10° SE daylight
02 Apr - 12:29:18 10° W 12:34:56 21° SW 12:39:20 10° S daylight
03 Apr - 03:33:59 10° S 03:44:14 23° SE 03:53:21 10° E visible
03 Apr - 05:35:36 10° SW 05:49:10 48° SSE 05:59:33 10° E visible
03 Apr - 07:41:21 10° WSW 07:54:34 66° S 08:03:34 10° E daylight
03 Apr - 09:48:25 10° W 09:59:25 58° SSW 10:06:38 10° ESE daylight
03 Apr - 11:55:47 10° W 12:02:40 25° SW 12:07:47 10° SSE daylight
04 Apr - 03:01:45 10° S 03:11:18 20° SE 03:20:05 10° E visible
04 Apr - 05:02:30 10° SW 05:16:08 45° SSE 05:26:57 10° E visible
04 Apr - 07:07:54 10° WSW 07:21:38 66° S 07:31:14 10° E daylight
04 Apr - 09:14:57 10° W 09:26:45 62° SSW 09:34:31 10° ESE daylight
04 Apr - 11:22:18 10° W 11:30:21 30° SW 11:36:07 10° SSE daylight
05 Apr - 02:29:46 10° S 02:38:23 18° SE 02:46:34 10° E visible
05 Apr - 04:29:30 10° SW 04:43:04 43° SSE 04:54:17 10° E visible
05 Apr - 06:34:29 10° WSW 06:48:37 65° S 06:58:50 10° E daylight
05 Apr - 08:41:28 10° W 08:54:00 65° S 09:02:21 10° ESE daylight
05 Apr - 10:48:49 10° W 10:57:57 35° SW 11:04:20 10° SSE daylight
06 Apr - 01:58:06 10° SSE 02:05:31 16° SE 02:12:42 10° E visible
06 Apr - 03:56:36 10° SSW 04:09:59 40° SSE 04:21:30 10° E visible
06 Apr - 06:01:07 10° WSW 06:15:33 64° SSE 06:26:23 10° E visible
06 Apr - 08:07:57 10° W 08:21:10 67° S 08:30:08 10° ESE daylight
06 Apr - 10:15:19 10° W 10:25:28 41° SSW 10:32:28 10° SE daylight
06 Apr - 12:25:50 10° WSW 12:27:45 11° SW 12:29:31 10° SW daylight
07 Apr - 01:27:01 10° SSE 01:32:40 13° SE 01:38:17 10° ESE visible
07 Apr - 03:23:50 10° SSW 03:36:53 38° SE 03:48:37 10° E visible
07 Apr - 05:27:48 10° WSW 05:42:26 62° SSE 05:53:50 10° E visible
07 Apr - 07:34:26 10° W 07:48:14 69° S 07:57:50 10° ESE daylight
07 Apr - 09:41:47 10° W 09:52:55 46° SSW 10:00:30 10° SE daylight
07 Apr - 11:50:54 10° W 11:55:30 15° SW 11:59:24 10° SSW daylight
